Regional Weather Roundup
Issued by NWS

Home | Current Version | Previous Version | Graphics & Text | Print | Product List | Glossary On
Versions: 1 2 3 4 5 6 7 8 9 10 11 12 13 14 15 16 17 18 19 20 21 22 23 24 25 26 27 28 29 30 31 32 33 34 35 36 37 38 39 40 41 42 43 44 45 46 47 48 49 50
000
ASUS45 KCYS 240210
RWRWY

WYOMING REGIONAL WEATHER ROUNDUP
NATIONAL WEATHER SERVICE CHEYENNE WY
700 PM MST TUE JAN 23 2018

NOTE:  "FAIR" INDICATES FEW OR NO CLOUDS BELOW 12,000 FEET
WITH NO SIGNIFICANT WEATHER AND/OR OBSTRUCTIONS TO VISIBILITY.

WYZ001-240300-
YELLOWSTONE NATIONAL PARK

CITY           SKY/WX    TMP DP  RH WIND       PRES   REMARKS
LK YELLOWSTONE   N/A     15  11  83 CALM      30.21S
W YELLOWSTONE  NOT AVBL

$$
WYZ002>013-054>058-071-098>099-240300-
NORTHERN WYOMING

CITY           SKY/WX    TMP DP  RH WIND       PRES   REMARKS
JACKSON        FAIR      15  11  83 SW8       30.25S WCI   4
CODY           FAIR      27  14  58 VRB5      30.13F WCI  22
GREYBULL       FAIR      23  13  65 SE3       30.18F
WORLAND        FAIR      22  13  68 S15       30.17F WCI   9
SHERIDAN       FAIR      22  12  65 S7        30.12F WCI  13
BUFFALO        FAIR      25   9  50 S8        30.13F WCI  16
GILLETTE       FAIR      23  13  65 SW8       30.16F WCI  14
HULETT         FAIR      25  18  74 S6        30.17S WCI  18
NEWCASTLE      FAIR      23  14  68 N5        30.21F WCI  17

$$
WYZ014>020-022>026-101>103-240300-
CENTRAL WYOMING

CITY           SKY/WX    TMP DP  RH WIND       PRES   REMARKS
BIG PINEY      FAIR      14   7  73 N9        30.25R WCI   2
PINEDALE       FAIR      10   3  72 CALM      30.26S
DUBOIS         FAIR      21  10  63 N17G26    30.14R WCI   7
LANDER         FAIR      12   9  87 CALM      30.17F
RIVERTON       FAIR      11   3  70 CALM      30.18F
CASPER         FAIR      22  14  71 SW16      30.19S WCI   8
DOUGLAS        FAIR       9   6  88 S5        30.20F WCI   1

$$
WYZ021-027>030-104>119-240300-
SOUTHERN WYOMING

CITY           SKY/WX    TMP DP  RH WIND       PRES   REMARKS
EVANSTON       FAIR      22  17  81 SW7       30.27S WCI  13
FORT BRIDGER   FAIR      24  17  77 W12       30.30S WCI  12
ROCK SPRINGS   FAIR      21  14  74 SW10      30.27S WCI  10
DIXON            N/A     13   8  78 CALM      30.34S
RAWLINS        FAIR      20  13  74 W12       30.25R WCI   8
SARATOGA       FAIR      12   5  73 S5        30.26S WCI   4
LARAMIE        FAIR      17   8  67 SW17      30.18S WCI   1
CHEYENNE       FAIR      21  10  62 SW10      30.21R WCI  10
TORRINGTON     FAIR      23  16  74 S3        30.23F

$$



USA.gov is the U.S. government's official web portal to all federal, state and local government web resources and services.